| time (UTC) | temp F | wind direction | speed MPH | gust MPH | rain 1hr in | rain 24hr in | rain mn in | humidity % | barometer mb |
| 20260507122907 | 73 | 166 | 0.0 | 0.0 | 0.00 | 0.00 | 0.00 | 100 | 1003.8 |
| 20260507121907 | 74 | 109 | 0.0 | 0.0 | 0.00 | 0.00 | 0.00 | 100 | 1003.9 |
| 20260507120837 | 73 | 111 | 0.0 | 0.0 | 0.00 | 0.00 | 0.00 | 100 | 1003.7 |
| 20260507115837 | 72 | 163 | 0.0 | 0.0 | 0.00 | 0.00 | 0.00 | 100 | 1003.8 |
| 20260507114837 | 71 | 121 | 0.0 | 0.0 | 0.00 | 0.00 | 0.00 | 100 | 1004.1 |
| 20260507113836 | 70 | 140 | 0.0 | 0.0 | 0.00 | 0.00 | 0.00 | 100 | 1003.9 |
| 20260507112836 | 71 | 135 | 0.0 | 0.0 | 0.00 | 0.00 | 0.00 | 100 | 1004.0 |
| 20260507111836 | 71 | 125 | 0.0 | 0.0 | 0.00 | 0.00 | 0.00 | 100 | 1004.2 |
| 20260507110836 | 71 | 147 | 0.0 | 0.0 | 0.00 | 0.00 | 0.00 | 100 | 1004.0 |
| 20260507105836 | 71 | 132 | 0.0 | 0.0 | 0.00 | 0.00 | 0.00 | 100 | 1004.2 |
| 20260507104806 | 71 | 75 | 0.0 | 0.0 | 0.00 | 0.00 | 0.00 | 100 | 1004.3 |
| 20260507103806 | 71 | 137 | 0.0 | 0.0 | 0.00 | 0.00 | 0.00 | 100 | 1004.3 |
| 20260507102806 | 71 | 110 | 0.0 | 0.0 | 0.00 | 0.00 | 0.00 | 100 | 1004.3 |
| 20260507101806 | 69 | 129 | 0.0 | 0.0 | 0.00 | 0.00 | 0.00 | 100 | 1004.2 |
| 20260507100806 | 70 | 136 | 0.0 | 0.0 | 0.00 | 0.00 | 0.00 | 100 | 1004.5 |
| 20260507095805 | 70 | 128 | 0.0 | 0.0 | 0.00 | 0.00 | 0.00 | 100 | 1004.4 |
| 20260507094805 | 70 | 82 | 0.0 | 0.0 | 0.00 | 0.00 | 0.00 | 100 | 1004.5 |
| 20260507093805 | 69 | 154 | 0.0 | 0.0 | 0.00 | 0.00 | 0.00 | 100 | 1004.5 |
| 20260507092805 | 69 | 135 | 0.0 | 0.0 | 0.00 | 0.00 | 0.00 | 100 | 1004.4 |
| 20260507091805 | 69 | 135 | 0.0 | 0.0 | 0.00 | 0.00 | 0.00 | 100 | 1004.5 |
| 20260507090805 | 69 | 142 | 0.0 | 0.0 | 0.00 | 0.00 | 0.00 | 100 | 1004.4 |
| 20260507085805 | 69 | 147 | 0.0 | 0.0 | 0.00 | 0.00 | 0.00 | 100 | 1004.5 |
| 20260507084735 | 67 | 151 | 0.0 | 0.0 | 0.00 | 0.00 | 0.00 | 100 | 1004.3 |
| 20260507083735 | 66 | 139 | 0.0 | 0.0 | 0.00 | 0.00 | 0.00 | 100 | 1004.3 |
| 20260507082735 | 65 | 55 | 0.0 | 0.0 | 0.00 | 0.00 | 0.00 | 100 | 1004.2 |
| 20260507081735 | 64 | 32 | 0.0 | 0.0 | 0.00 | 0.00 | 0.00 | 100 | 1004.3 |
| 20260507080704 | 63 | 25 | 0.0 | 0.0 | 0.00 | 0.00 | 0.00 | 100 | 1004.2 |
| 20260507075704 | 63 | 0 | 0.0 | 0.0 | 0.00 | 0.00 | 0.00 | 100 | 1004.4 |
| 20260507074704 | 63 | 353 | 0.0 | 0.0 | 0.00 | 0.00 | 0.00 | 100 | 1004.6 |
| 20260507073634 | 62 | 32 | 0.0 | 0.0 | 0.00 | 0.00 | 0.00 | 100 | 1004.7 |
| 20260507072634 | 62 | 0 | 0.0 | 0.0 | 0.00 | 0.00 | 0.00 | 100 | 1004.8 |
| 20260507071634 | 61 | 0 | 0.0 | 0.0 | 0.00 | 0.00 | 0.00 | 100 | 1004.8 |
| 20260507070634 | 60 | 23 | 0.0 | 0.0 | 0.00 | 0.00 | 0.00 | 100 | 1004.8 |
| 20260507065604 | 60 | 27 | 0.0 | 0.0 | 0.00 | 0.00 | 0.00 | 100 | 1004.8 |
| 20260507064534 | 59 | 3 | 0.0 | 0.0 | 0.00 | 0.00 | 0.00 | 100 | 1004.7 |
| 20260507063533 | 58 | 10 | 0.0 | 0.0 | 0.00 | 0.00 | 0.00 | 100 | 1004.7 |
| 20260507062533 | 58 | 19 | 0.0 | 0.0 | 0.00 | 0.00 | 0.00 | 100 | 1004.6 |
| 20260507061507 | 58 | 38 | 0.0 | 0.0 | 0.00 | 0.00 | 0.00 | 100 | 1004.3 |
| 20260507060437 | 57 | 36 | 0.0 | 0.0 | 0.00 | 0.00 | 0.00 | 100 | 1004.3 |
| 20260507055437 | 56 | 1 | 0.0 | 0.0 | 0.00 | 0.00 | 0.00 | 100 | 1004.2 |
| 20260507054437 | 55 | 35 | 0.0 | 0.0 | 0.00 | 0.00 | 0.00 | 100 | 1004.2 |
| 20260507053407 | 55 | 16 | 0.0 | 0.0 | 0.00 | 0.00 | 0.00 | 100 | 1004.2 |
| 20260507052407 | 54 | 26 | 0.0 | 0.0 | 0.00 | 0.00 | 0.00 | 100 | 1004.1 |
| 20260507051336 | 53 | 21 | 0.0 | 0.0 | 0.00 | 0.00 | 0.00 | 100 | 1004.0 |
| 20260507050336 | 52 | 9 | 0.0 | 0.0 | 0.00 | 0.00 | 0.00 | 100 | 1003.9 |
| 20260507045336 | 52 | 18 | 0.0 | 0.0 | 0.00 | 0.00 | 0.00 | 100 | 1003.9 |
| 20260507044337 | 52 | 357 | 0.0 | 0.0 | 0.00 | 0.00 | 0.00 | 100 | 1003.9 |
| 20260507043306 | 52 | 5 | 0.0 | 0.0 | 0.00 | 0.00 | 0.00 | 100 | 1003.9 |
| 20260507042307 | 53 | 13 | 0.0 | 0.0 | 0.00 | 0.00 | 0.00 | 100 | 1003.9 |
| 20260507041306 | 52 | 9 | 0.0 | 0.0 | 0.00 | 0.00 | 0.00 | 100 | 1003.9 |
| 20260507040306 | 52 | 6 | 0.0 | 0.0 | 0.00 | 0.00 | 0.00 | 100 | 1003.9 |
| 20260507035235 | 53 | 0 | 0.0 | 0.0 | 0.00 | 0.00 | 0.00 | 100 | 1003.8 |
| 20260507034205 | 53 | 8 | 0.0 | 0.0 | 0.00 | 0.00 | 0.00 | 100 | 1003.7 |
| 20260507033205 | 53 | 11 | 0.0 | 0.0 | 0.00 | 0.00 | 0.00 | 100 | 1003.9 |
| 20260507032205 | 53 | 17 | 0.0 | 0.0 | 0.00 | 0.00 | 0.00 | 100 | 1003.8 |
| 20260507031205 | 53 | 17 | 0.0 | 0.0 | 0.00 | 0.00 | 0.00 | 100 | 1003.9 |
| 20260507030145 | 53 | 0 | 0.0 | 0.0 | 0.00 | 0.00 | 0.00 | 100 | 1003.9 |
| 20260507025145 | 53 | 21 | 0.0 | 0.0 | 0.00 | 0.00 | 0.00 | 100 | 1003.8 |
| 20260507024145 | 54 | 10 | 0.0 | 0.0 | 0.00 | 0.00 | 0.00 | 100 | 1003.9 |
| 20260507023115 | 54 | 2 | 0.0 | 0.0 | 0.00 | 0.00 | 0.00 | 100 | 1003.8 |
| 20260507022115 | 54 | 19 | 0.0 | 0.0 | 0.00 | 0.00 | 0.00 | 100 | 1003.6 |
| 20260507021115 | 54 | 3 | 0.0 | 0.0 | 0.00 | 0.00 | 0.00 | 100 | 1003.7 |
| 20260507020115 | 54 | 24 | 0.0 | 0.0 | 0.00 | 0.00 | 0.00 | 100 | 1003.8 |
| 20260507015115 | 54 | 1 | 0.0 | 0.0 | 0.00 | 0.00 | 0.00 | 100 | 1003.8 |
| 20260507014115 | 54 | 17 | 0.0 | 0.0 | 0.00 | 0.00 | 0.00 | 100 | 1003.6 |
| 20260507013045 | 54 | 11 | 0.0 | 0.0 | 0.00 | 0.00 | 0.00 | 100 | 1003.7 |
| 20260507012045 | 55 | 309 | 0.0 | 0.0 | 0.00 | 0.00 | 0.00 | 100 | 1003.6 |
| 20260507011015 | 55 | 9 | 0.0 | 0.0 | 0.00 | 0.00 | 0.00 | 100 | 1003.6 |
| 20260507005944 | 54 | 15 | 0.0 | 0.0 | 0.00 | 0.00 | 0.00 | 100 | 1003.7 |
| 20260507004944 | 55 | 10 | 0.0 | 0.0 | 0.00 | 0.00 | 0.00 | 100 | 1003.7 |
| 20260507003944 | 55 | 4 | 0.0 | 0.0 | 0.00 | 0.00 | 0.00 | 100 | 1003.9 |
| 20260507002944 | 55 | 8 | 0.0 | 0.0 | 0.00 | 0.00 | 0.00 | 100 | 1003.7 |
| 20260507001944 | 55 | 6 | 0.0 | 0.0 | 0.00 | 0.00 | 0.00 | 100 | 1003.8 |
| 20260507000914 | 55 | 7 | 0.0 | 0.0 | 0.00 | 0.00 | 0.00 | 100 | 1003.8 |
| 20260506235914 | 55 | 27 | 0.0 | 0.0 | 0.00 | 0.00 | 0.00 | 100 | 1003.8 |
| 20260506234914 | 55 | 1 | 0.0 | 0.0 | 0.00 | 0.00 | 0.00 | 100 | 1003.8 |
| 20260506233844 | 56 | 0 | 0.0 | 0.0 | 0.00 | 0.00 | 0.00 | 100 | 1003.8 |
| 20260506232813 | 56 | 12 | 0.0 | 0.0 | 0.00 | 0.00 | 0.00 | 100 | 1003.9 |
| 20260506231813 | 56 | 20 | 0.0 | 0.0 | 0.00 | 0.00 | 0.00 | 100 | 1003.7 |
| 20260506230743 | 56 | 7 | 0.0 | 0.0 | 0.00 | 0.00 | 0.00 | 100 | 1003.7 |
| 20260506225743 | 56 | 22 | 0.0 | 0.0 | 0.00 | 0.00 | 0.00 | 100 | 1003.8 |
| 20260506224713 | 56 | 0 | 0.0 | 0.0 | 0.00 | 0.00 | 0.00 | 100 | 1003.8 |
| 20260506223713 | 56 | 0 | 0.0 | 0.0 | 0.00 | 0.00 | 0.00 | 100 | 1003.7 |
| 20260506222713 | 56 | 9 | 0.0 | 0.0 | 0.00 | 0.00 | 0.00 | 100 | 1003.6 |
| 20260506221713 | 57 | 0 | 0.0 | 0.0 | 0.00 | 0.00 | 0.00 | 100 | 1003.7 |
| 20260506220713 | 57 | 0 | 0.0 | 0.0 | 0.00 | 0.00 | 0.00 | 100 | 1003.6 |
| 20260506215643 | 58 | 7 | 0.0 | 0.0 | 0.00 | 0.00 | 0.00 | 100 | 1003.6 |
| 20260506214643 | 58 | 11 | 0.0 | 0.0 | 0.00 | 0.00 | 0.00 | 100 | 1003.7 |
| 20260506213613 | 58 | 8 | 0.0 | 0.0 | 0.00 | 0.00 | 0.00 | 100 | 1003.5 |
| 20260506212613 | 59 | 1 | 0.0 | 0.0 | 0.00 | 0.00 | 0.00 | 100 | 1003.4 |
| 20260506211613 | 59 | 16 | 0.0 | 0.0 | 0.00 | 0.00 | 0.00 | 100 | 1003.4 |
| 20260506210613 | 60 | 18 | 0.0 | 0.0 | 0.00 | 0.00 | 0.00 | 100 | 1003.2 |
| 20260506205542 | 60 | 0 | 0.0 | 0.0 | 0.00 | 0.00 | 0.00 | 100 | 1003.2 |
| 20260506204542 | 61 | 199 | 0.0 | 0.0 | 0.00 | 0.00 | 0.00 | 100 | 1003.2 |
| 20260506203512 | 61 | 199 | 0.0 | 0.0 | 0.00 | 0.00 | 0.00 | 100 | 1003.1 |
| 20260506202512 | 61 | 199 | 0.0 | 0.0 | 0.00 | 0.00 | 0.00 | 100 | 1002.9 |
| 20260506201442 | 62 | 199 | 0.0 | 0.0 | 0.00 | 0.00 | 0.00 | 100 | 1002.8 |
| 20260506200442 | 62 | 199 | 0.0 | 0.0 | 0.00 | 0.00 | 0.00 | 100 | 1002.7 |
| 20260506195442 | 62 | 199 | 0.0 | 0.0 | 0.00 | 0.00 | 0.00 | 100 | 1002.3 |
| 20260506194442 | 62 | 199 | 0.0 | 0.0 | 0.00 | 0.00 | 0.00 | 100 | 1002.3 |
| 20260506193442 | 63 | 199 | 0.0 | 0.0 | 0.00 | 0.00 | 0.00 | 100 | 1002.1 |
| 20260506192412 | 63 | 199 | 0.0 | 0.0 | 0.00 | 0.00 | 0.00 | 100 | 1002.0 |
| 20260506191411 | 63 | 199 | 0.0 | 0.0 | 0.00 | 0.00 | 0.00 | 100 | 1001.9 |
| 20260506190341 | 64 | 199 | 0.0 | 0.0 | 0.00 | 0.00 | 0.00 | 100 | 1001.9 |
| 20260506185341 | 65 | 199 | 0.0 | 0.0 | 0.00 | 0.00 | 0.00 | 100 | 1001.7 |
| 20260506184341 | 67 | 199 | 0.0 | 0.0 | 0.00 | 0.00 | 0.00 | 100 | 1001.6 |
| 20260506183341 | 69 | 185 | 0.0 | 0.0 | 0.00 | 0.00 | 0.00 | 100 | 1001.5 |
| 20260506182311 | 70 | 177 | 0.0 | 0.0 | 0.00 | 0.00 | 0.00 | 100 | 1001.4 |
| 20260506181311 | 70 | 171 | 0.0 | 0.0 | 0.00 | 0.00 | 0.00 | 100 | 1001.2 |
| 20260506180311 | 70 | 171 | 0.0 | 0.0 | 0.00 | 0.00 | 0.00 | 100 | 1001.1 |
| 20260506175311 | 73 | 195 | 0.0 | 0.0 | 0.00 | 0.00 | 0.00 | 100 | 1009.2 |
| 20260506174241 | 69 | 145 | 0.0 | 0.0 | 0.00 | 0.00 | 0.00 | 100 | 1001.0 |
| 20260506173241 | 71 | 153 | 0.0 | 0.0 | 0.00 | 0.00 | 0.00 | 100 | 1000.8 |
| 20260506172241 | 71 | 128 | 0.0 | 0.0 | 0.00 | 0.00 | 0.00 | 100 | 1000.9 |
| 20260506171240 | 71 | 181 | 0.0 | 0.0 | 0.00 | 0.00 | 0.00 | 100 | 1000.8 |
| 20260506170240 | 71 | 148 | 0.0 | 0.0 | 0.00 | 0.00 | 0.00 | 100 | 1000.6 |
| 20260506165240 | 71 | 156 | 0.0 | 0.0 | 0.00 | 0.00 | 0.00 | 100 | 1000.6 |
| 20260506164240 | 71 | 154 | 0.0 | 0.0 | 0.00 | 0.00 | 0.00 | 100 | 1000.5 |
| 20260506163240 | 72 | 166 | 0.0 | 0.0 | 0.00 | 0.00 | 0.00 | 100 | 1000.6 |
| 20260506162210 | 72 | 153 | 0.0 | 0.0 | 0.00 | 0.00 | 0.00 | 100 | 1000.6 |
| 20260506161210 | 72 | 147 | 0.0 | 0.0 | 0.00 | 0.00 | 0.00 | 100 | 999.8 |
| 20260506160210 | 72 | 180 | 0.0 | 0.0 | 0.00 | 0.00 | 0.00 | 100 | 1000.6 |
| 20260506155140 | 67 | 192 | 0.0 | 0.0 | 0.00 | 0.00 | 0.00 | 100 | 1000.6 |
| 20260506154140 | 73 | 156 | 0.0 | 0.0 | 0.00 | 0.00 | 0.00 | 100 | 999.3 |
| 20260506153109 | 73 | 149 | 0.0 | 0.0 | 0.00 | 0.00 | 0.00 | 100 | 1000.7 |
| 20260506152109 | 73 | 161 | 0.0 | 0.0 | 0.00 | 0.00 | 0.00 | 100 | 1000.7 |
| 20260506151109 | 73 | 186 | 0.0 | 0.0 | 0.00 | 0.00 | 0.00 | 100 | 1000.8 |
| 20260506150039 | 73 | 188 | 0.0 | 0.0 | 0.00 | 0.00 | 0.00 | 100 | 1000.9 |
| 20260506145039 | 73 | 167 | 0.0 | 0.0 | 0.00 | 0.00 | 0.00 | 100 | 1001.0 |
| 20260506144039 | 73 | 155 | 0.0 | 0.0 | 0.00 | 0.00 | 0.00 | 100 | 1001.1 |
| 20260506143039 | 73 | 133 | 0.0 | 0.0 | 0.00 | 0.00 | 0.00 | 100 | 1001.1 |
| 20260506142039 | 73 | 147 | 0.0 | 0.0 | 0.00 | 0.00 | 0.00 | 100 | 1001.3 |
| 20260506141039 | 73 | 139 | 0.0 | 0.0 | 0.00 | 0.00 | 0.00 | 100 | 1001.3 |
| 20260506140039 | 71 | 144 | 0.0 | 0.0 | 0.00 | 0.00 | 0.00 | 100 | 997.3 |
| 20260506135039 | 72 | 205 | 0.0 | 0.0 | 0.00 | 0.00 | 0.00 | 100 | 1001.6 |
| 20260506134008 | 68 | 147 | 0.0 | 0.0 | 0.00 | 0.00 | 0.00 | 100 | 986.9 |
| 20260506133008 | 76 | 173 | 0.0 | 0.0 | 0.00 | 0.00 | 0.00 | 100 | 1010.2 |
| 20260506132008 | 71 | 186 | 0.0 | 0.0 | 0.00 | 0.00 | 0.00 | 100 | 1001.8 |
| 20260506131008 | 71 | 181 | 0.0 | 0.0 | 0.00 | 0.00 | 0.00 | 100 | 1002.0 |
| 20260506130008 | 71 | 172 | 0.0 | 0.0 | 0.00 | 0.00 | 0.00 | 100 | 1002.1 |
| 20260506124938 | 70 | 207 | 0.0 | 0.0 | 0.00 | 0.00 | 0.00 | 100 | 1002.1 |
| 20260506123938 | 71 | 194 | 0.0 | 0.0 | 0.00 | 0.00 | 0.00 | 100 | 1002.2 |